Startseite
Über Mich
AHP4
Galerie
Sehschlangen
Tourenbuch
Bookmarks
Elektronik
Bewertung
Geschichten
[Tagesmessung] [Jahreswerte] [Information]

Messwerte vom 29.04.2022

Die letzten Messwerte von 23:58:47 Uhr:
KategorieMesswert
Temperatur [°C]9
Luftdruck [mBar]1010
Sonneneinstrahlung0
Wind [km/h]3 aus Nordost
Niederschlag [l/m²]0
rel.Luftfeucht.68.9%
CO2 [ppm]428

Diagramme
Messwerte vom 29.04.2022
Tagesaggregation
KategorieMinimumMaximumSchnittSumme
Temperatur [°C]22411.3000
Luftdruck [mBar]100910141011.6271
Sonneneinstrahlung245127.4750
Wind [km/h]15
rF [%]30.593.965.84
Niederschlag [l/m²]0
CO2 [ppm]409490448.9
Einordnung alsVegetationstag

Messungen an benachbarten Tagen: Zur Jahresaggregation 2022
Tabelle aller Messwerte
UhrzeitTemperatur [°C]Luftdruck [mBar]SonneWind [km/h]RichtungRegen [l/m²]rF [%]CO2 [ppm]
00:01:45 6 1014 0 0 NO 0 80.5 458
00:04:46 6 1013 0 0 NO 0 80.2 456
00:07:48 6 1013 0 0 NO 0 80.4 451
00:10:46 6 1013 0 0 NO 0 80.4 454
00:13:46 6 1013 0 0 NO 0 79.6 457
00:16:45 6 1013 0 0 S 0 79.1 463
00:19:48 6 1013 0 0 SO 0 79 460
00:22:48 5 1013 0 0 SO 0 79.1 460
00:25:46 5 1013 0 0 SO 0 79.1 451
00:28:46 5 1013 0 0 SO 0 79.8 448
00:31:49 5 1014 0 0 SO 0 80.1 448
00:34:47 5 1013 0 0 SO 0 80.2 448
00:37:45 5 1014 0 0 SO 0 80.4 454
00:40:47 5 1013 0 0 SO 0 81.2 460
00:43:47 5 1013 0 0 SO 0 81.4 459
00:46:47 5 1014 0 0 SO 0 81.6 460
00:49:45 5 1014 0 0 SO 0 81.7 459
00:52:45 5 1013 0 0 SO 0 81.6 456
00:55:47 4 1013 0 0 SO 0 82 454
00:58:46 4 1014 0 0 SO 0 82.1 460
01:01:48 4 1013 0 0 SO 0 82.1 466
01:04:48 4 1013 0 0 SO 0 82.1 465
01:07:47 4 1013 0 0 SO 0 82.5 468
01:10:51 4 1014 0 0 SO 0 83.1 468
01:13:45 4 1014 0 0 SO 0 83.1 469
01:16:48 4 1013 0 0 SO 0 83.3 468
01:19:47 4 1014 0 0 SO 0 83.9 466
01:22:44 4 1014 0 0 SO 0 84.1 460
01:25:46 4 1013 0 0 SO 0 85.1 457
01:28:46 4 1013 0 0 SO 0 84.7 457
01:31:46 4 1014 0 1 SO 0 85.6 462
01:34:45 4 1013 0 0 SO 0 85.6 467
01:37:48 4 1013 0 0 SO 0 85.2 475
01:40:48 4 1013 0 0 SO 0 85.2 480
01:43:46 4 1013 0 0 SO 0 85.5 478
01:46:49 4 1013 0 0 SO 0 85.9 472
01:49:46 4 1014 0 0 SO 0 86.1 469
01:52:46 4 1014 0 0 SO 0 86.1 469
01:55:48 4 1013 0 0 SO 0 86.1 460
01:58:46 4 1013 0 0 SO 0 86.1 460
02:01:46 4 1013 0 0 SO 0 86.2 457
02:04:46 3 1013 0 0 SO 0 86.3 460
02:07:48 3 1014 0 0 SO 0 86.2 466
02:10:45 3 1013 0 0 N 0 86.7 471
02:13:47 3 1013 0 0 S 0 87.9 472
02:16:46 3 1013 0 0 S 0 87.5 472
02:19:47 3 1014 0 0 S 0 87.3 471
02:22:46 3 1013 0 0 S 0 87.5 468
02:25:45 3 1013 0 0 S 0 87.5 474
02:28:47 3 1013 0 0 S 0 87.2 478
02:31:47 3 1013 0 0 S 0 87.2 475
02:34:46 3 1013 0 0 S 0 88 478
02:37:47 3 1013 0 0 S 0 89.4 472
02:40:47 3 1013 0 0 S 0 89 483
02:43:46 3 1013 0 0 S 0 88.7 478
02:46:46 3 1013 0 0 S 0 88.6 468
02:49:47 3 1013 0 0 S 0 89.2 464
02:52:46 3 1013 0 0 S 0 88.9 466
02:55:46 3 1013 0 0 NO 0 89.1 459
02:58:47 3 1013 0 0 NO 0 89.7 456
03:01:47 3 1013 0 0 NO 0 90.1 454
03:04:45 3 1013 0 0 NO 0 90 451
03:07:48 3 1013 0 0 SO 0 89.6 451
03:10:47 2 1013 0 0 SO 0 89.7 460
03:13:47 2 1013 0 0 SO 0 89.8 463
03:16:46 2 1013 0 0 N 0 90.4 466
03:19:47 3 1013 0 0 N 0 91.6 465
03:22:45 3 1013 0 0 O 0 92 464
03:25:45 3 1013 0 0 O 0 91.4 466
03:28:47 3 1013 0 0 SO 0 91.3 457
03:31:47 3 1013 0 0 SO 0 91.3 459
03:34:47 3 1013 0 0 N 0 91.4 463
03:37:47 3 1013 0 0 O 0 91.5 466
03:40:46 3 1014 0 0 O 0 91.4 468
03:43:47 3 1013 0 0 O 0 91.4 466
03:46:44 3 1013 0 0 O 0 91.5 463
03:49:45 3 1013 0 0 O 0 91.5 466
03:52:45 3 1013 0 0 O 0 91.8 463
03:55:45 3 1013 0 0 O 0 92.1 468
03:58:48 3 1013 0 0 SO 0 92.1 466
04:01:46 3 1013 0 0 O 0 92 473
04:04:47 2 1013 0 0 O 0 92 478
04:07:45 2 1013 0 0 O 0 92.1 483
04:10:46 2 1013 0 0 O 0 91.9 484
04:13:49 2 1013 0 0 O 0 92.3 478
04:16:46 2 1013 0 0 O 0 92.4 480
04:19:45 2 1013 0 0 O 0 92.1 475
04:22:44 2 1013 0 0 O 0 92.1 474
04:25:45 2 1013 0 0 N 0 92.5 468
04:28:46 3 1013 0 0 N 0 93.7 467
04:31:46 3 1013 0 0 N 0 93.5 469
04:34:46 2 1013 0 0 N 0 92.9 471
04:37:47 2 1013 0 0 N 0 92.9 469
04:40:44 2 1013 0 0 N 0 93 477
04:43:47 2 1013 0 0 N 0 93.2 475
04:46:45 2 1013 0 0 N 0 93.1 475
04:49:48 2 1013 0 0 SO 0 92.9 472
04:52:46 2 1013 0 0 SO 0 92.7 469
04:55:46 3 1013 0 0 SO 0 93.1 471
04:58:47 3 1013 0 0 NW 0 93.2 474
05:01:48 3 1013 0 0 NW 0 93.1 477
05:04:49 3 1013 0 0 NW 0 93.1 483
05:07:46 3 1013 0 0 NW 0 93.1 477
05:10:48 3 1013 0 0 NW 0 93.3 481
05:13:50 3 1013 0 0 NW 0 93 472
05:16:50 3 1013 0 0 NW 0 92.8 477
05:19:46 3 1013 0 0 SO 0 92.7 478
05:22:48 3 1013 0 0 SO 0 93 478
05:25:46 3 1013 3 0 SO 0 93.1 468
05:28:46 3 1013 5 0 SO 0 93.5 466
05:31:46 3 1013 8 0 SO 0 93.3 472
05:34:46 3 1013 12 0 SO 0 93 471
05:37:47 3 1013 17 0 SO 0 92.9 472
05:40:47 3 1013 24 0 SO 0 92.9 477
05:43:48 2 1013 32 0 SO 0 92.7 475
05:46:49 2 1013 39 0 SO 0 92.6 483
05:49:47 2 1013 46 0 SO 0 92.8 483
05:52:46 2 1013 56 0 SO 0 92.8 480
05:55:50 2 1013 66 0 SO 0 92.9 481
05:58:49 2 1013 74 0 SO 0 92.8 475
06:01:48 2 1013 79 0 SO 0 92.8 481
06:04:46 2 1013 86 0 SO 0 92.8 477
06:07:47 2 1013 92 0 SO 0 92.8 477
06:10:48 2 1013 97 0 SO 0 93.1 477
06:13:48 2 1013 102 0 SW 0 93.5 480
06:16:54 3 1013 108 0 SW 0 93.8 483
06:19:46 3 1013 114 0 SW 0 93.8 475
06:22:50 3 1013 119 0 SW 0 93.8 468
06:25:49 3 1013 125 0 S 0 93.9 472
06:28:47 3 1013 131 0 SW 0 93.8 475
06:31:47 3 1013 139 0 NO 0 93.7 486
06:34:46 3 1013 147 0 NO 0 93.7 477
06:37:49 3 1013 153 0 NO 0 93.7 486
06:40:47 3 1013 158 0 NO 0 93.6 483
06:43:48 3 1013 161 0 NO 0 93.4 481
06:46:49 4 1013 164 0 NO 0 93.2 481
06:49:50 4 1013 166 0 NO 0 93 480
06:52:47 4 1013 169 0 NO 0 92.8 480
06:55:49 4 1013 172 0 NO 0 92.6 486
06:58:48 4 1013 174 0 NO 0 92.6 483
07:01:49 4 1013 175 0 NO 0 92.7 483
07:04:51 4 1013 174 0 NW 0 92.8 480
07:07:48 4 1013 173 0 NW 0 92.7 472
07:10:49 4 1013 172 0 NW 0 92.6 471
07:13:48 4 1013 172 0 NW 0 92.6 477
07:16:50 4 1013 173 0 NW 0 92.6 485
07:19:49 4 1013 176 0 NW 0 92.6 490
07:22:48 4 1013 179 0 NW 0 92.5 489
07:25:50 4 1013 182 0 NW 0 92.2 489
07:28:52 4 1013 186 0 NW 0 92 480
07:31:48 4 1014 190 0 NW 0 91.9 474
07:34:45 4 1013 194 0 NW 0 91.9 477
07:37:48 5 1013 197 0 NW 0 91.7 478
07:40:48 5 1013 200 0 NW 0 91.6 483
07:43:49 5 1013 203 0 NW 0 91.5 477
07:46:49 5 1013 206 0 NW 0 91.6 478
07:49:47 5 1013 209 0 S 0 91.5 477
07:52:47 6 1013 211 0 O 0 90.6 478
07:55:48 6 1013 211 0 SW 0 89.8 469
07:58:47 6 1013 211 0 S 0 88.5 466
08:01:51 7 1013 211 0 NO 0 88.7 469
08:04:47 7 1013 211 0 S 0 88.1 472
08:07:48 7 1013 211 1 S 0 86.2 475
08:10:48 7 1014 210 0 S 0 84.8 465
08:13:48 7 1013 210 0 W 0 84.5 466
08:16:48 7 1013 210 1 SW 0 84.5 471
08:19:48 7 1013 210 0 W 0 84.7 472
08:22:47 7 1013 211 0 W 0 84.4 474
08:25:48 7 1013 212 0 SO 0 84.5 477
08:28:49 8 1013 214 2 NW 0 84.4 475
08:31:47 8 1013 214 0 SO 0 83.8 468
08:34:44 8 1013 214 1 N 0 83.7 468
08:37:50 8 1013 214 0 SW 0 82.9 472
08:40:49 8 1013 213 0 N 0 82.2 483
08:43:47 8 1013 213 0 S 0 82.6 478
08:46:48 8 1013 213 0 S 0 82.3 472
08:49:48 9 1013 212 1 O 0 82.2 465
08:52:47 9 1013 212 0 W 0 81.7 478
08:55:48 9 1013 213 1 NO 0 80.8 481
08:58:48 9 1013 213 2 NW 0 80.8 477
09:01:49 9 1013 212 0 NW 0 81.2 474
09:04:48 9 1013 210 0 NW 0 81 471
09:07:49 9 1013 206 0 SW 0 80.9 474
09:10:47 9 1013 203 2 S 0 80 469
09:13:48 9 1013 199 0 S 0 79.5 471
09:16:48 9 1013 199 4 W 0 79.5 472
09:19:47 9 1013 200 0 NW 0 79.7 474
09:22:46 9 1013 204 1 N 0 79.3 477
09:25:48 9 1013 209 3 N 0 79.6 473
09:28:48 9 1013 212 3 NW 0 80.5 466
09:31:48 9 1013 213 3 NO 0 80.8 459
09:34:46 9 1013 215 1 N 0 80.3 459
09:37:50 9 1013 215 4 NW 0 80.7 463
09:40:50 10 1013 215 0 NW 0 79.8 463
09:43:46 10 1013 216 2 S 0 79.4 459
09:46:47 10 1013 216 0 N 0 76 471
09:49:48 10 1013 217 1 SO 0 75.2 470
09:52:48 10 1013 216 1 NO 0 74 472
09:55:48 10 1013 217 2 NW 0 73.4 471
09:58:46 10 1013 218 0 N 0 74 468
10:01:48 10 1013 218 0 NW 0 74.6 468
10:04:48 11 1013 217 2 S 0 73.8 465
10:07:47 11 1013 215 2 S 0 73.1 466
10:10:49 11 1013 213 0 S 0 72.6 466
10:13:47 11 1013 212 2 NW 0 71.5 472
10:16:49 11 1013 213 2 NW 0 71.3 468
10:19:49 11 1013 212 0 NW 0 71.8 469
10:22:48 11 1013 212 9 SO 0 72.2 465
10:25:49 12 1013 211 4 SO 0 71.7 465
10:28:47 12 1013 210 2 SO 0 71.5 463
10:31:47 12 1013 208 3 S 0 70.5 463
10:34:48 12 1013 209 1 SO 0 70.2 460
10:37:51 12 1013 210 10 SW 0 69.3 460
10:40:47 12 1013 210 4 SW 0 69.1 457
10:43:47 13 1013 210 3 SO 0 68.5 451
10:46:46 13 1013 209 1 N 0 67.3 451
10:49:47 13 1013 209 3 N 0 66.8 451
10:52:47 13 1013 209 3 S 0 66.2 459
10:55:50 13 1013 208 4 NW 0 67.2 460
10:58:48 13 1013 208 4 NW 0 66.4 462
11:01:48 13 1013 208 0 NO 0 67.2 462
11:04:50 13 1013 208 1 NW 0 68 457
11:07:47 13 1013 209 1 SO 0 67.4 451
11:10:48 13 1013 209 2 NW 0 67.7 454
11:13:49 14 1013 209 1 O 0 66.5 457
11:16:47 14 1013 209 2 SO 0 66.1 456
11:19:47 14 1013 210 2 O 0 64 460
11:22:48 14 1013 210 4 SO 0 63.4 454
11:25:47 15 1013 210 1 SO 0 63.4 459
11:28:46 15 1013 210 0 S 0 62.3 462
11:31:47 15 1013 211 12 SO 0 61.8 459
11:34:47 15 1013 211 1 N 0 61.9 457
11:37:46 15 1013 212 1 S 0 61.6 454
11:40:46 15 1013 213 1 N 0 61 456
11:43:48 15 1013 214 2 SW 0 61.7 457
11:46:48 16 1013 214 3 O 0 60.9 448
11:49:47 16 1013 215 4 S 0 60.6 448
11:52:48 16 1013 215 0 O 0 58.9 448
11:55:47 16 1013 216 2 O 0 54.8 456
11:58:49 16 1013 216 6 SO 0 56.3 448
12:01:48 17 1012 216 1 NO 0 51.4 445
12:04:48 17 1013 215 0 SO 0 53 445
12:07:47 17 1012 216 3 NW 0 53.9 448
12:10:47 18 1013 216 3 O 0 48.4 445
12:13:46 17 1012 215 1 O 0 50.6 445
12:16:47 18 1013 214 6 W 0 48.1 442
12:19:47 18 1012 213 2 N 0 45.4 445
12:22:48 18 1012 212 6 SO 0 48.9 442
12:25:49 18 1012 215 1 NO 0 45.3 445
12:28:46 18 1012 217 3 S 0 45 445
12:31:46 18 1013 217 3 O 0 44.8 442
12:34:31 17 1012 217 1 S 0 40 442
12:37:48 19 1013 218 4 SO 0 47.3 440
12:40:48 20 1012 219 3 O 0 45.1 448
12:43:47 20 1012 219 1 N 0 42.2 445
12:46:48 19 1012 220 3 NO 0 41.7 454
12:49:45 19 1013 221 7 N 0 42.2 449
12:52:31 18 1012 222 2 N 0 40 448
12:55:49 20 1011 223 2 NW 0 40.2 440
12:58:45 19 1012 225 1 O 0 39.7 439
13:01:48 20 1012 226 3 SO 0 43.1 445
13:04:48 21 1012 227 15 S 0 39.8 446
13:07:48 22 1012 229 1 NW 0 38.8 439
13:10:49 22 1012 229 3 S 0 40.3 439
13:13:49 22 1011 229 7 SO 0 38.3 439
13:16:48 22 1013 228 2 SW 0 35.7 436
13:19:48 22 1012 228 2 W 0 34.9 439
13:22:47 22 1012 229 3 O 0 36 442
13:25:47 22 1012 229 4 O 0 38 445
13:28:47 21 1012 229 2 NO 0 38.4 448
13:31:48 22 1011 229 2 SO 0 37.2 442
13:34:48 21 1012 229 3 NW 0 36.3 433
13:37:48 21 1011 230 1 SO 0 37.9 430
13:40:49 21 1012 230 7 SO 0 38.3 433
13:43:46 21 1012 230 3 S 0 37.1 443
13:46:46 22 1012 230 2 S 0 35.3 446
13:49:48 22 1012 230 2 SO 0 36.2 442
13:52:48 22 1012 230 1 NW 0 36.1 438
13:55:49 21 1011 232 4 NW 0 35.6 434
13:58:47 20 1012 233 2 W 0 36.3 442
14:01:46 21 1011 231 1 W 0 38.3 436
14:04:48 20 1010 232 1 NO 0 38 437
14:07:47 19 1011 232 6 N 0 35.7 430
14:10:48 19 1011 235 4 NW 0 35.3 428
14:13:49 19 1011 236 2 SW 0 35.9 428
14:16:45 19 1011 234 3 0 36.8 433
14:19:46 19 1011 235 2 N 0 37.6 437
14:22:47 19 1011 237 1 NO 0 36.2 433
14:25:46 19 1011 238 4 N 0 37.8 428
14:28:30 18 1011 238 2 W 0 40 428
14:31:46 20 1011 241 2 N 0 36.4 431
14:34:48 20 1011 242 2 NO 0 35.5 428
14:37:48 20 1010 241 4 NO 0 36.4 428
14:40:48 20 1010 241 3 NO 0 35.5 427
14:43:49 20 1011 239 1 NW 0 35.7 426
14:46:52 20 1010 240 3 NO 0 39.4 440
14:49:48 20 1011 241 5 N 0 36.9 440
14:52:47 20 1010 240 3 NW 0 36.5 434
14:55:48 20 1011 243 5 W 0 36.8 436
14:58:48 20 1010 243 3 SW 0 37.1 443
15:01:48 22 1010 242 1 S 0 36.5 442
15:04:48 22 1010 243 0 W 0 36.3 440
15:07:32 20 1010 243 3 NW 0 40 434
15:10:47 23 1011 244 1 S 0 32.9 427
15:13:47 23 1010 244 0 O 0 33.6 431
15:16:50 24 1010 243 5 SO 0 34.1 434
15:19:49 24 1010 243 6 S 0 34.3 442
15:22:49 23 1010 244 1 NW 0 30.5 442
15:25:48 23 1010 245 2 N 0 33.3 436
15:28:46 24 1010 245 3 S 0 33.4 434
15:31:47 24 1010 245 0 S 0 32.2 437
15:34:47 23 1010 243 0 SO 0 31 439
15:37:47 23 1010 243 3 S 0 31 443
15:40:47 23 1010 242 0 NW 0 32.9 443
15:43:48 23 1010 242 0 S 0 32 439
15:46:46 23 1010 243 4 S 0 32.8 439
15:49:46 24 1010 245 2 SO 0 33.7 430
15:52:48 23 1010 243 1 NO 0 33.2 439
15:55:49 23 1010 242 4 NW 0 32.1 434
15:58:47 22 1010 241 3 NO 0 32.2 430
16:01:51 22 1010 241 0 SO 0 32.9 425
16:04:50 21 1010 239 2 NW 0 32.8 430
16:07:48 21 1010 242 2 NO 0 33.2 428
16:10:49 21 1010 244 3 NW 0 34.6 422
16:13:48 21 1010 238 1 S 0 35.9 424
16:16:48 21 1010 238 8 W 0 36.6 431
16:19:49 21 1010 238 1 NW 0 37.2 434
16:22:49 21 1010 239 8 NW 0 36.9 427
16:25:48 20 1010 237 4 NW 0 37.1 433
16:28:49 20 1010 235 5 W 0 39.2 425
16:31:47 20 1010 237 0 NW 0 39.4 433
16:34:47 20 1010 240 0 W 0 39.4 430
16:37:50 21 1010 241 2 NW 0 38.4 434
16:40:49 20 1010 242 13 N 0 35.6 433
16:43:49 20 1010 240 3 W 0 37 425
16:46:48 20 1010 241 1 N 0 37.2 419
16:49:48 21 1010 242 4 N 0 36.8 418
16:52:49 21 1010 242 0 NW 0 36.7 422
16:55:49 21 1010 243 4 NW 0 35.6 425
16:58:48 21 1010 239 4 W 0 36.9 434
17:01:48 21 1010 243 10 NW 0 37.1 434
17:04:50 20 1010 240 5 NW 0 35.2 430
17:07:49 20 1010 236 5 N 0 34.3 422
17:10:49 20 1010 237 0 O 0 35.3 425
17:13:49 20 1010 232 2 NW 0 36.9 428
17:16:50 20 1009 230 0 S 0 36.4 424
17:19:49 19 1009 230 4 NW 0 36 419
17:22:50 19 1009 229 3 N 0 35.8 415
17:25:49 19 1009 227 4 N 0 37.2 419
17:28:46 19 1010 225 5 NW 0 37.4 413
17:31:48 19 1010 223 0 NO 0 36.6 422
17:34:48 18 1010 223 4 N 0 38.4 422
17:37:49 18 1009 223 2 NW 0 38.6 427
17:40:51 18 1009 222 2 NW 0 38.2 425
17:43:50 18 1010 221 0 NW 0 38.5 430
17:46:49 18 1009 220 1 NW 0 39.4 431
17:49:49 18 1009 222 3 N 0 40.9 430
17:52:49 18 1009 222 0 NW 0 41.1 431
17:55:48 19 1009 221 1 N 0 42.2 428
17:58:48 19 1010 220 1 NW 0 40.9 425
18:01:49 18 1009 219 2 NW 0 40.7 427
18:04:50 18 1010 218 1 W 0 41.9 427
18:07:50 18 1010 217 2 NW 0 41.7 422
18:10:49 18 1010 218 2 N 0 42.5 422
18:13:49 17 1009 219 4 NW 0 42.8 422
18:16:49 17 1009 223 3 NW 0 44.4 422
18:19:46 17 1009 227 5 W 0 44.3 416
18:22:48 17 1009 229 1 O 0 42.8 417
18:25:47 17 1009 228 3 N 0 42.4 416
18:28:51 17 1009 227 6 NW 0 41.7 423
18:31:49 17 1009 225 3 SO 0 43.6 414
18:34:50 17 1009 222 5 NW 0 44.3 416
18:37:48 17 1009 218 3 O 0 44.6 419
18:40:47 17 1009 214 4 N 0 44.6 416
18:43:47 17 1009 212 6 N 0 45 413
18:46:49 17 1009 213 8 NW 0 45.5 413
18:49:30 16 1009 214 9 0 40 419
18:52:47 17 1009 215 2 N 0 45.7 416
18:55:48 17 1009 215 0 SO 0 46 416
18:58:47 16 1009 213 0 N 0 46.1 409
19:01:50 16 1010 209 10 N 0 45.9 422
19:04:50 16 1009 204 7 NO 0 46.2 425
19:07:49 16 1009 198 2 SW 0 46.8 427
19:10:47 16 1009 191 5 N 0 46.8 419
19:13:48 16 1009 185 7 NW 0 46.2 419
19:16:49 16 1009 181 3 N 0 46.1 416
19:19:48 16 1009 178 2 N 0 46.4 418
19:22:48 16 1009 176 6 NW 0 46.6 416
19:25:48 16 1009 175 4 NW 0 46.8 422
19:28:48 16 1009 173 2 NW 0 47.2 419
19:31:46 16 1009 174 2 NO 0 47.4 427
19:34:46 15 1010 177 2 0 47.9 427
19:37:48 15 1009 179 0 N 0 48.3 430
19:40:46 15 1009 178 1 N 0 48.6 430
19:43:50 15 1009 176 1 NW 0 48.7 427
19:46:46 15 1009 170 3 N 0 49.4 421
19:49:48 15 1009 153 0 O 0 49.8 419
19:52:46 15 1009 147 3 N 0 50.2 421
19:55:46 15 1009 152 9 N 0 50.9 415
19:58:46 15 1010 155 6 S 0 52.7 422
20:01:50 15 1010 153 12 NW 0 53.9 424
20:04:47 14 1009 149 8 N 0 54.6 427
20:07:48 14 1010 134 9 W 0 55.4 421
20:10:49 14 1009 111 13 N 0 56 419
20:13:47 14 1010 110 6 NO 0 56 418
20:16:47 14 1010 116 7 N 0 56.4 427
20:19:46 14 1010 112 7 N 0 56.7 422
20:22:48 13 1010 105 7 O 0 56.8 422
20:25:46 13 1010 94 11 N 0 57.3 418
20:28:48 13 1010 88 5 NO 0 57.3 421
20:31:48 13 1009 88 8 N 0 57.6 422
20:34:47 13 1009 79 4 W 0 58 425
20:37:48 13 1009 69 6 W 0 58.3 421
20:40:46 13 1009 58 5 N 0 58.5 419
20:43:47 13 1010 47 1 N 0 58.8 425
20:46:46 13 1009 37 4 0 59.1 422
20:49:50 12 1009 28 4 NO 0 59.7 430
20:52:51 12 1009 19 10 NW 0 60.1 425
20:55:50 12 1010 12 5 NW 0 60.2 425
20:58:49 12 1010 8 8 N 0 60.3 419
21:01:48 12 1010 6 9 NW 0 60.7 419
21:04:45 12 1010 4 7 W 0 60.9 426
21:07:48 12 1010 3 6 NW 0 60.9 428
21:10:48 12 1010 0 2 NW 0 60.8 428
21:13:49 12 1010 0 3 NW 0 60.7 424
21:16:48 12 1010 0 5 N 0 60.4 426
21:19:49 12 1010 0 5 NO 0 60.5 425
21:22:48 12 1010 0 2 NW 0 60.7 427
21:25:47 12 1010 0 6 N 0 60.7 426
21:28:47 12 1010 0 2 W 0 60.6 425
21:31:48 12 1010 0 4 NW 0 61.2 422
21:34:45 11 1010 0 8 W 0 61.7 422
21:37:46 11 1010 0 2 NW 0 61.9 419
21:40:48 11 1010 0 1 NW 0 61.9 422
21:43:47 11 1010 0 1 NO 0 62.2 422
21:46:46 11 1010 0 3 O 0 62.4 425
21:49:47 11 1010 0 2 O 0 62.3 424
21:52:47 11 1010 0 4 NW 0 62.3 425
21:55:47 11 1010 0 1 NW 0 62.4 430
21:58:47 11 1010 0 1 0 62.8 430
22:01:49 11 1010 0 5 N 0 63.2 425
22:04:49 11 1009 0 2 NW 0 63.2 420
22:07:48 11 1010 0 2 NW 0 63.1 421
22:10:46 11 1010 0 3 W 0 63 418
22:13:49 11 1010 0 5 NW 0 63.3 422
22:16:49 11 1010 0 7 NO 0 63.4 422
22:19:46 11 1010 0 14 NW 0 63.3 430
22:22:48 11 1010 0 4 W 0 63.3 431
22:25:47 11 1010 0 2 N 0 63.2 436
22:28:47 11 1010 0 8 NW 0 63.3 440
22:31:45 11 1010 0 9 N 0 63.7 436
22:34:49 11 1010 0 3 NW 0 63.7 431
22:37:48 11 1010 0 5 NW 0 63.8 427
22:40:50 11 1010 0 5 NW 0 64.2 430
22:43:47 11 1010 0 6 N 0 64.5 425
22:46:47 10 1010 0 4 N 0 64.6 428
22:49:48 10 1010 0 8 NW 0 64.8 428
22:52:46 10 1010 0 3 W 0 65.1 433
22:55:46 10 1010 0 2 W 0 65.3 425
22:58:44 10 1010 0 2 N 0 65.4 424
23:01:48 10 1010 0 0 SO 0 65.9 427
23:04:49 10 1010 0 7 NW 0 66.3 436
23:07:47 10 1010 0 4 W 0 66.7 436
23:10:47 10 1010 0 14 NO 0 67.2 434
23:13:48 10 1010 0 6 NW 0 67.1 431
23:16:45 10 1010 0 3 N 0 66.7 425
23:19:47 10 1010 0 4 W 0 67.2 425
23:22:47 10 1010 0 1 O 0 67 425
23:25:49 10 1010 0 10 NW 0 67.6 422
23:28:46 10 1010 0 5 N 0 68.3 424
23:31:47 10 1010 0 5 N 0 68.3 425
23:34:46 10 1010 0 1 NW 0 68 437
23:37:47 10 1010 0 4 SO 0 67.9 436
23:40:46 10 1010 0 3 NW 0 68.3 433
23:43:45 10 1010 0 13 N 0 68.4 431
23:46:47 10 1010 0 1 SW 0 68.4 436
23:49:46 10 1010 0 11 N 0 68.4 433
23:52:44 9 1010 0 1 O 0 68.4 424
23:55:46 9 1010 0 2 NO 0 68.4 422
23:58:47 9 1010 0 3 NO 0 68.9 428

Letzte Änderung : 22-Jul-2022
Copyright Jens Köhler, Wolfsburg, Obere Dorfstraße 10d